EUTELSAT 9A

Last updated on Thu Jun 30 2016 01:38:07 GMT+0000 (Coordinated Universal Time)

1 28946U 06007B 16181.41309666 .00000036 00000-0 10000-3 0 9997 2 28946 0.0410 109.5425 0004786 359.8739 330.2296 1.00272427 37809

Satellite not in orbit

EUTELSAT 9A